Location: Sternwarte ZA, Rosenfeld-Brittheim
(48.2889°N, 8.6789°E)
Time: 06:08:27
(UTC+02:00)

ISS - Pass Details

Date: 21 May 2018
Orbit: 402 x 407 km, 51.6° (Epoch: 24 May)

Event Time Altitude Azimuth Distance (km) Brightness Sun altitude
Rises 00:42:50 0° 263° (W) 2,317 0.1 -21.0°
Reaches altitude 10° 00:44:56 10° 268° (W) 1,458 -0.9 -21.1°
Maximum altitude 00:48:09 54° 348° (NNW) 496 -3.1 -21.2°
Drops below altitude 10° 00:51:22 10° 67° (ENE) 1,459 -0.8 -21.2°
Sets 00:53:29 0° 72° (ENE) 2,320 0.2 -21.3°
